This is the latest recevied weather packets stored in our database for station/object KD8DNS. If no packets are shown the sender has not sent any weather packets the latest 10 day(s).
| Time | Temp. | Humidity | Pressure | Rain* | Wind** | Luminosity | Snow |
|---|---|---|---|---|---|---|---|
| 1787858235 | 30.56° C | 53% | 1017.3 hPa | 0 mm | - | 599 W/m² | - |
| 1787857932 | 30.56° C | 57% | 1017.5 hPa | 0 mm | - | 601 W/m² | - |
| 1787857628 | 30.56° C | 57% | 1017.6 hPa | 0 mm | - | 607 W/m² | - |
| 1787857328 | 30.56° C | 56% | 1017.3 hPa | 0 mm | - | 628 W/m² | - |
| 1787857026 | 30.56° C | 58% | 1017.3 hPa | 0 mm | - | 605 W/m² | - |
| 1787856720 | 30.56° C | 56% | 1017.6 hPa | 0 mm | - | 633 W/m² | - |
| 1787856415 | 30° C | 57% | 1017.5 hPa | 0 mm | - | 461 W/m² | - |
| 1787856110 | 29.44° C | 59% | 1017.4 hPa | 0 mm | - | 653 W/m² | - |
| 1787855805 | 30° C | 60% | 1017.8 hPa | 0 mm | - | 161 W/m² | - |
| 1787855501 | 30° C | 59% | 1017.6 hPa | 0 mm | - | 672 W/m² | - |
| 1787855196 | 30° C | 61% | 1017.8 hPa | 0 mm | - | 223 W/m² | - |
| 1787854891 | 29.44° C | 62% | 1017.7 hPa | 0 mm | - | 730 W/m² | - |
| 1787854590 | 28.89° C | 62% | 1017.8 hPa | 0 mm | - | 726 W/m² | - |
| 1787854285 | 30.56° C | 59% | 1017.9 hPa | 0 mm | - | 143 W/m² | - |
| 1787853980 | 30° C | 62% | 1017.9 hPa | 0 mm | - | 752 W/m² | - |
| 1787853674 | 29.44° C | 61% | 1017.7 hPa | 0 mm | - | 747 W/m² | - |
| 1787853368 | 28.89° C | 63% | 1017.8 hPa | 0 mm | - | 676 W/m² | - |
| 1787853062 | 28.89° C | 62% | 1018.1 hPa | 0 mm | - | 165 W/m² | - |
| 1787852757 | 28.89° C | 64% | 1017.9 hPa | 0 mm | - | 698 W/m² | - |
| 1787852456 | 28.89° C | 66% | 1018 hPa | 0 mm | - | 794 W/m² | - |
| 1787852155 | 28.89° C | 63% | 1018 hPa | 0 mm | - | 774 W/m² | - |
| 1787851851 | 28.33° C | 65% | 1017.9 hPa | 0 mm | - | 755 W/m² | - |
| 1787851549 | 28.33° C | 63% | 1018.1 hPa | 0 mm | - | 170 W/m² | - |
| 1787851244 | 28.33° C | 65% | 1018.1 hPa | 0 mm | - | 459 W/m² | - |
| 1787850939 | 28.89° C | 64% | 1017.9 hPa | 0 mm | - | 163 W/m² | - |
* Rain latest hour (hover to see other rain measurements)
** Current wind speed in m/s (hover to see current wind gust speed)